| time (UTC) | temp F | wind direction | speed MPH | gust MPH | rain 1hr in | rain 24hr in | rain mn in | humidity % | barometer mb |
| 20260505053017 | 43 | 360 | 0.0 | 5.0 | 0.00 | 0.00 | 0.00 | 51 | 1001.0 |
| 20260505051542 | 42 | 5 | 1.0 | 5.0 | 0.00 | 0.00 | 0.00 | 54 | 1000.9 |
| 20260505050141 | 41 | 5 | 0.0 | 6.0 | 0.00 | 0.00 | 0.00 | 57 | 1000.7 |
| 20260505041523 | 40 | 181 | 0.0 | 0.0 | 0.00 | 0.00 | 0.00 | 75 | 1000.8 |
| 20260505040035 | 40 | 182 | 0.0 | 0.0 | 0.00 | 0.00 | 0.00 | 75 | 1000.6 |
| 20260505034540 | 40 | 182 | 0.0 | 0.0 | 0.00 | 0.00 | 0.00 | 73 | 1000.3 |
| 20260505033031 | 40 | 182 | 0.0 | 0.0 | 0.00 | 0.00 | 0.00 | 75 | 1000.3 |
| 20260505031521 | 40 | 182 | 0.0 | 0.0 | 0.00 | 0.00 | 0.00 | 74 | 1000.6 |
| 20260505030027 | 40 | 183 | 1.0 | 5.0 | 0.00 | 0.00 | 0.00 | 74 | 1000.1 |
| 20260505024504 | 40 | 63 | 0.0 | 1.0 | 0.00 | 0.00 | 0.00 | 75 | 1000.0 |
| 20260505023056 | 40 | 61 | 0.0 | 0.0 | 0.00 | 0.00 | 0.00 | 74 | 999.6 |
| 20260505021556 | 40 | 61 | 0.0 | 0.0 | 0.00 | 0.00 | 0.00 | 73 | 999.2 |
| 20260505020013 | 42 | 59 | 0.0 | 0.0 | 0.00 | 0.00 | 0.00 | 68 | 999.3 |
| 20260505014510 | 44 | 38 | 0.0 | 5.0 | 0.00 | 0.00 | 0.00 | 62 | 999.2 |
| 20260505013013 | 45 | 20 | 0.0 | 7.0 | 0.00 | 0.00 | 0.00 | 51 | 999.0 |
| 20260505011558 | 45 | 10 | 1.0 | 6.0 | 0.00 | 0.00 | 0.00 | 50 | 998.9 |
| 20260505004542 | 45 | 17 | 0.0 | 9.0 | 0.00 | 0.00 | 0.00 | 56 | 998.6 |
| 20260505003047 | 45 | 11 | 0.0 | 18.0 | 0.00 | 0.00 | 0.00 | 54 | 998.8 |
| 20260505001548 | 45 | 315 | 1.0 | 11.0 | 0.00 | 0.00 | 0.00 | 57 | 998.9 |
| 20260505000012 | 45 | 283 | 1.0 | 11.0 | 0.00 | 0.00 | 0.00 | 60 | 998.9 |
| 20260504233105 | 47 | 284 | 2.0 | 11.0 | 0.00 | 0.00 | 0.00 | 56 | 998.6 |
| 20260504231543 | 50 | 255 | 2.0 | 7.0 | 0.00 | 0.00 | 0.00 | 47 | 998.5 |
| 20260504230154 | 51 | 332 | 1.0 | 9.0 | 0.00 | 0.00 | 0.00 | 44 | 998.7 |
| 20260504224529 | 50 | 246 | 0.0 | 8.0 | 0.00 | 0.00 | 0.00 | 46 | 998.4 |
| 20260504223034 | 48 | 294 | 0.0 | 5.0 | 0.00 | 0.00 | 0.00 | 53 | 998.4 |
| 20260504221536 | 50 | 311 | 3.0 | 18.0 | 0.00 | 0.00 | 0.00 | 49 | 998.6 |
| 20260504220038 | 53 | 271 | 2.0 | 17.0 | 0.00 | 0.00 | 0.00 | 43 | 998.7 |
| 20260504214517 | 54 | 278 | 5.0 | 15.0 | 0.00 | 0.00 | 0.00 | 39 | 998.7 |
| 20260504213101 | 53 | 281 | 1.0 | 13.0 | 0.00 | 0.00 | 0.00 | 41 | 998.9 |
| 20260504211600 | 53 | 346 | 3.0 | 10.0 | 0.00 | 0.00 | 0.00 | 42 | 999.1 |
| 20260504210023 | 52 | 280 | 1.0 | 9.0 | 0.00 | 0.00 | 0.00 | 44 | 999.3 |
| 20260504204518 | 53 | 5 | 2.0 | 13.0 | 0.00 | 0.00 | 0.00 | 41 | 999.4 |
| 20260504203039 | 55 | 349 | 4.0 | 13.0 | 0.00 | 0.00 | 0.00 | 34 | 999.2 |
| 20260504201543 | 56 | 337 | 1.0 | 8.0 | 0.00 | 0.00 | 0.00 | 31 | 999.1 |
| 20260504200004 | 55 | 252 | 2.0 | 10.0 | 0.00 | 0.00 | 0.00 | 33 | 999.3 |
| 20260504194507 | 55 | 269 | 3.0 | 9.0 | 0.00 | 0.00 | 0.00 | 32 | 999.2 |
| 20260504193023 | 55 | 9 | 3.0 | 14.0 | 0.00 | 0.00 | 0.00 | 37 | 999.3 |
| 20260504191536 | 54 | 275 | 2.0 | 12.0 | 0.00 | 0.00 | 0.00 | 41 | 999.8 |
| 20260504190003 | 51 | 273 | 3.0 | 13.0 | 0.00 | 0.00 | 0.00 | 41 | 1000.0 |
| 20260504184511 | 51 | 296 | 5.0 | 19.0 | 0.00 | 0.00 | 0.00 | 42 | 1000.3 |
| 20260504183038 | 52 | 5 | 0.0 | 9.0 | 0.00 | 0.00 | 0.00 | 30 | 1000.2 |
| 20260504181551 | 52 | 41 | 2.0 | 9.0 | 0.00 | 0.00 | 0.00 | 33 | 1000.4 |
| 20260504180155 | 52 | 15 | 0.0 | 5.0 | 0.00 | 0.00 | 0.00 | 35 | 1000.7 |
| 20260504174515 | 51 | 360 | 0.0 | 10.0 | 0.00 | 0.00 | 0.00 | 38 | 1000.7 |
| 20260504173102 | 52 | 11 | 1.0 | 9.0 | 0.00 | 0.00 | 0.00 | 34 | 1000.8 |
| 20260504171513 | 53 | 289 | 3.0 | 12.0 | 0.00 | 0.00 | 0.00 | 35 | 1001.1 |
| 20260504081507 | 38 | 342 | 0.0 | 0.0 | 0.00 | 0.00 | 0.00 | 47 | 1003.2 |